CET,Max TemperatureF,Mean TemperatureF,Min TemperatureF,Max Dew PointF,MeanDew PointF,Min DewpointF,Max Humidity, Mean Humidity, Min Humidity, Max Sea Level PressureIn, Mean Sea Level PressureIn, Min Sea Level PressureIn, Max VisibilityMiles, Mean VisibilityMiles, Min VisibilityMiles, Max Wind SpeedMPH, Mean Wind SpeedMPH, Max Gust SpeedMPH,PrecipitationIn, CloudCover, Events, WindDirDegrees
2012-12-1,50,42,35,45,40,36,100,93,76,30.21,30.06,29.98,6,6,6,8,5,,0.00,3,Fog-Rain,2
2012-12-2,51,40,28,45,38,28,100,91,71,30.39,30.33,30.24,6,6,3,4,1,,0.00,3,Fog,101
2012-12-3,50,46,41,48,46,41,100,96,82,30.42,30.38,30.27,6,5,1,13,4,22,0.00,6,Fog-Rain,210
2012-12-4,50,46,41,50,44,41,100,94,76,30.36,30.29,30.24,6,6,2,12,5,,0.00,4,Rain,282
2012-12-5,51,45,39,45,43,39,100,94,71,30.24,30.18,30.12,6,6,6,6,3,,0.00,5,Fog-Rain,234
2012-12-6,51,48,44,48,46,43,100,94,87,30.12,30.00,29.92,6,6,4,16,8,,0.00,6,Rain,135
2012-12-7,53,50,44,54,49,45,100,99,93,30.24,30.05,29.92,6,6,1,13,6,,0.00,5,Rain,52
2012-12-8,51,46,41,43,39,36,93,80,66,30.33,30.30,30.24,6,6,6,10,7,,0.00,1,,53
2012-12-9,55,45,35,41,37,32,93,78,54,30.33,30.28,30.24,6,6,6,9,4,,0.00,,Fog,114
2012-12-10,50,41,32,43,37,30,100,89,71,30.24,30.20,30.18,6,6,3,7,3,,0.00,3,Fog,128
2012-12-11,50,39,28,41,36,28,100,90,66,30.18,30.13,30.06,5,4,4,4,1,13,0.00,1,,100
2012-12-12,50,44,39,46,39,36,100,86,66,30.06,29.93,29.83,6,5,0,10,4,,0.00,5,Fog-Rain,173
2012-12-13,55,50,46,55,51,46,100,99,94,29.83,29.67,29.56,6,3,1,24,12,45,0.00,7,Rain,213
2012-12-14,59,54,48,59,52,46,100,96,82,29.68,29.51,29.39,6,4,2,30,20,54,0.00,6,Rain-Thunderstorm,231
2012-12-15,53,52,50,52,49,45,100,90,76,30.04,29.87,29.68,6,5,1,18,14,33,0.00,3,Rain,232
2012-12-16,55,52,50,55,51,46,100,96,82,30.15,30.05,29.95,6,5,2,17,10,30,0.00,4,Rain,235
2012-12-17,55,52,48,52,48,46,100,89,77,30.24,30.19,30.15,6,6,2,9,5,,0.00,3,Fog-Rain,223
2012-12-18,55,52,50,55,52,48,100,96,82,30.18,30.11,30.09,6,5,2,16,9,29,0.00,6,Fog-Rain,200
2012-12-19,55,53,51,54,52,48,100,94,82,30.09,29.97,29.83,6,5,2,20,14,32,0.00,6,Rain,185
2012-12-20,51,50,48,52,48,45,100,92,87,30.04,29.96,29.83,6,5,2,24,10,40,0.00,4,Rain,212
2012-12-21,57,54,51,57,53,50,100,95,82,30.24,30.10,29.92,6,4,1,25,14,40,0.00,6,Fog-Rain,221
2012-12-22,57,55,53,55,53,50,100,93,82,30.24,30.18,30.15,6,6,3,16,11,30,0.00,6,,194
2012-12-23,59,54,50,50,49,46,94,83,72,30.15,30.05,29.92,6,6,6,21,14,33,0.00,4,,196
2012-12-24,57,52,46,52,48,45,100,86,77,29.92,29.82,29.74,6,6,4,21,15,34,0.00,6,Rain,196
2012-12-25,53,48,44,48,45,43,100,94,77,30.24,30.00,29.86,6,6,4,8,4,,0.00,4,Fog-Rain,224
2012-12-26,50,44,37,48,44,37,100,95,82,30.39,30.33,30.24,6,5,0,12,4,22,0.00,3,Fog,187
2012-12-27,53,50,48,52,50,46,100,99,93,30.48,30.43,30.39,6,2,1,14,10,18,0.00,7,Fog,206
2012-12-28,55,52,48,50,46,41,100,84,63,30.48,30.35,30.18,6,6,6,21,10,36,0.00,4,,184
2012-12-29,51,48,46,50,45,41,100,85,71,30.36,30.17,30.01,6,6,2,25,16,41,0.00,5,Rain,222
2012-12-30,51,48,44,50,47,43,100,95,87,30.48,30.40,30.36,6,5,1,12,5,,0.00,5,Fog-Rain,213
2012-12-31,50,49,48,50,48,46,100,99,93,30.33,30.11,29.92,6,4,2,23,13,38,0.00,6,Rain,206